AUA9722 LIPB-LOWW

Flight info

Callsign AUA9722
Flight time 0h 46m
Altitude 34000
Route ALESE M985 VESAL DCT MALUG DCT ARALD DCT ABTAN ABTAN2W
Aircraft B736/M-SDE2E3FGHIRWXY/LB1

Departure

Time 2026-04-16 06:31
Airport Bolzano Airport (LIPB)

Arrival

Time 2026-04-16 07:17
Airport Vienna International Airport (LOWW)
Time Latitude Longitude Altitude Speed Heading
2026-04-16 05:58 46.46244 11.32883 786 ft 0 kts 99°
2026-04-16 06:23 46.46245 11.32871 786 ft 4 kts 104°
2026-04-16 06:23 46.46255 11.32839 786 ft 4 kts 145°
2026-04-16 06:23 46.46277 11.32830 786 ft 2 kts 190°
2026-04-16 06:24 46.46282 11.32831 786 ft 0 kts 190°
2026-04-16 06:26 46.46281 11.32831 786 ft 0 kts 190°
2026-04-16 06:26 46.46263 11.32826 786 ft 5 kts 189°
2026-04-16 06:27 46.46239 11.32788 786 ft 6 kts 265°
2026-04-16 06:27 46.46242 11.32725 786 ft 7 kts 262°
2026-04-16 06:27 46.46199 11.32685 787 ft 11 kts 190°
2026-04-16 06:27 46.46090 11.32658 788 ft 19 kts 190°
2026-04-16 06:28 46.45959 11.32623 787 ft 19 kts 191°
2026-04-16 06:28 46.45830 11.32587 787 ft 18 kts 191°
2026-04-16 06:28 46.45706 11.32556 786 ft 18 kts 190°
2026-04-16 06:28 46.45585 11.32524 786 ft 17 kts 190°
2026-04-16 06:29 46.45470 11.32494 786 ft 17 kts 190°
2026-04-16 06:29 46.45357 11.32466 787 ft 16 kts 190°
2026-04-16 06:29 46.45250 11.32440 787 ft 15 kts 180°
2026-04-16 06:29 46.45168 11.32445 786 ft 11 kts 221°
2026-04-16 06:30 46.45176 11.32416 786 ft 2 kts 12°
2026-04-16 06:30 46.45187 11.32421 786 ft 0 kts
2026-04-16 06:30 46.45223 11.32429 787 ft 32 kts
2026-04-16 06:30 46.45756 11.32566 787 ft 122 kts 11°
2026-04-16 06:31 46.46786 11.32839 1181 ft 157 kts 11°
2026-04-16 06:31 46.47819 11.33004 2305 ft 150 kts 348°
2026-04-16 06:31 46.48696 11.32086 2937 ft 167 kts 292°
2026-04-16 06:31 46.48648 11.30432 3833 ft 171 kts 239°
2026-04-16 06:32 46.47765 11.29326 4733 ft 177 kts 209°
2026-04-16 06:32 46.46539 11.28695 5421 ft 193 kts 194°
2026-04-16 06:32 46.45203 11.28329 6301 ft 201 kts 177°
2026-04-16 06:32 46.43797 11.28615 7149 ft 204 kts 171°
2026-04-16 06:33 46.42400 11.28889 8047 ft 204 kts 173°
2026-04-16 06:33 46.41462 11.29048 8610 ft 205 kts 173°
2026-04-16 06:33 46.39558 11.28893 9636 ft 210 kts 198°
2026-04-16 06:33 46.38177 11.28221 10397 ft 212 kts 198°
2026-04-16 06:34 46.37235 11.27778 10866 ft 215 kts 197°
2026-04-16 06:34 46.35753 11.27387 11535 ft 218 kts 173°
2026-04-16 06:34 46.34314 11.28207 11900 ft 236 kts 137°
2026-04-16 06:34 46.33206 11.30035 12537 ft 245 kts 126°
2026-04-16 06:35 46.32152 11.31974 13370 ft 249 kts 127°
2026-04-16 06:35 46.31068 11.33953 14197 ft 252 kts 127°
2026-04-16 06:35 46.29967 11.35948 14945 ft 256 kts 128°
2026-04-16 06:35 46.28858 11.37963 15716 ft 259 kts 124°
2026-04-16 06:36 46.28168 11.40352 16444 ft 260 kts 93°
2026-04-16 06:36 46.28423 11.42965 16917 ft 272 kts 66°
2026-04-16 06:36 46.29291 11.45548 17133 ft 298 kts 60°
2026-04-16 06:36 46.30324 11.48275 17325 ft 324 kts 59°
2026-04-16 06:37 46.31463 11.51245 17525 ft 350 kts 59°
2026-04-16 06:37 46.32667 11.54423 17694 ft 374 kts 59°
2026-04-16 06:37 46.33944 11.57839 18032 ft 391 kts 60°
2026-04-16 06:37 46.35233 11.61326 18643 ft 398 kts 60°
2026-04-16 06:38 46.36543 11.64890 19344 ft 400 kts 60°
2026-04-16 06:38 46.37843 11.68435 20057 ft 404 kts 60°
2026-04-16 06:38 46.39174 11.72066 20669 ft 409 kts 60°
2026-04-16 06:38 46.40513 11.75735 21319 ft 414 kts 60°
2026-04-16 06:39 46.41850 11.79414 21981 ft 418 kts 60°
2026-04-16 06:39 46.43142 11.83222 22600 ft 423 kts 64°
2026-04-16 06:39 46.44284 11.87202 23210 ft 429 kts 67°
2026-04-16 06:39 46.45354 11.91247 23809 ft 433 kts 68°
2026-04-16 06:40 46.46420 11.95379 24334 ft 437 kts 68°
2026-04-16 06:40 46.47483 11.99491 24884 ft 440 kts 68°
2026-04-16 06:40 46.48576 12.03674 25413 ft 443 kts 68°
2026-04-16 06:40 46.49682 12.07863 25913 ft 446 kts 68°
2026-04-16 06:41 46.50794 12.12043 26411 ft 450 kts 68°
2026-04-16 06:41 46.51935 12.16313 26900 ft 453 kts 68°
2026-04-16 06:41 46.53084 12.20605 27494 ft 455 kts 68°
2026-04-16 06:41 46.54207 12.24872 27906 ft 460 kts 68°
2026-04-16 06:42 46.55344 12.29258 28315 ft 464 kts 68°
2026-04-16 06:42 46.56466 12.33619 28617 ft 464 kts 68°
2026-04-16 06:42 46.57593 12.38015 28793 ft 465 kts 68°
2026-04-16 06:42 46.58731 12.42457 28921 ft 468 kts 68°
2026-04-16 06:43 46.59873 12.46914 29060 ft 469 kts 69°
2026-04-16 06:43 46.61008 12.51345 29310 ft 471 kts 69°
2026-04-16 06:43 46.62157 12.55839 29604 ft 473 kts 69°
2026-04-16 06:43 46.63297 12.60300 29853 ft 474 kts 69°
2026-04-16 06:44 46.64449 12.64817 30193 ft 474 kts 69°
2026-04-16 06:44 46.65577 12.69251 30656 ft 470 kts 69°
2026-04-16 06:44 46.66709 12.73708 31091 ft 467 kts 69°
2026-04-16 06:44 46.67834 12.78148 31381 ft 468 kts 69°
2026-04-16 06:45 46.68966 12.82617 31570 ft 471 kts 69°
2026-04-16 06:45 46.70100 12.87108 31856 ft 471 kts 69°
2026-04-16 06:45 46.71214 12.91530 32246 ft 470 kts 69°
2026-04-16 06:45 46.72335 12.95987 32649 ft 468 kts 69°
2026-04-16 06:46 46.73453 13.00443 33004 ft 468 kts 69°
2026-04-16 06:46 46.74570 13.04899 33318 ft 468 kts 69°
2026-04-16 06:46 46.75687 13.09368 33674 ft 468 kts 69°
2026-04-16 06:46 46.76800 13.13826 34105 ft 465 kts 69°
2026-04-16 06:47 46.79014 13.22723 34192 ft 465 kts 69°
2026-04-16 06:47 46.81197 13.31531 34199 ft 463 kts 69°
2026-04-16 06:48 46.83377 13.40365 34206 ft 463 kts 69°
2026-04-16 06:48 46.85559 13.49236 34209 ft 464 kts 69°
2026-04-16 06:49 46.87735 13.58122 34217 ft 465 kts 69°
2026-04-16 06:49 46.89904 13.67011 34217 ft 465 kts 69°
2026-04-16 06:50 46.92071 13.75929 34216 ft 466 kts 69°
2026-04-16 06:50 46.94223 13.84821 34208 ft 465 kts 69°
2026-04-16 06:51 46.96383 13.93781 34226 ft 465 kts 69°
2026-04-16 06:51 46.98520 14.02684 34220 ft 465 kts 70°
2026-04-16 06:52 47.00654 14.11608 34235 ft 465 kts 69°
2026-04-16 06:52 47.02793 14.20593 34228 ft 465 kts 70°
2026-04-16 06:53 47.04913 14.29532 34218 ft 464 kts 70°
2026-04-16 06:53 47.07020 14.38451 34220 ft 464 kts 70°
2026-04-16 06:54 47.09119 14.47375 34225 ft 464 kts 70°
2026-04-16 06:54 47.11225 14.56365 34237 ft 464 kts 70°
2026-04-16 06:55 47.13299 14.65257 34242 ft 463 kts 70°
2026-04-16 06:55 47.15388 14.74242 34246 ft 464 kts 70°
2026-04-16 06:56 47.17272 14.83299 34241 ft 464 kts 74°
2026-04-16 06:56 47.18799 14.92481 34238 ft 464 kts 75°
2026-04-16 06:57 47.20295 15.01715 34220 ft 464 kts 75°
2026-04-16 06:57 47.21819 15.10931 34219 ft 464 kts 75°
2026-04-16 06:58 47.22585 15.15528 33785 ft 469 kts 75°
2026-04-16 06:58 47.23370 15.20231 32959 ft 469 kts 75°
2026-04-16 06:58 47.24140 15.24853 32068 ft 468 kts 75°
2026-04-16 06:58 47.24918 15.29538 31126 ft 468 kts 75°
2026-04-16 06:59 47.25681 15.34148 30146 ft 469 kts 75°
2026-04-16 06:59 47.26459 15.38867 28941 ft 471 kts 75°
2026-04-16 06:59 47.27225 15.43520 27883 ft 470 kts 75°
2026-04-16 06:59 47.27984 15.48152 27140 ft 462 kts 75°
2026-04-16 07:00 47.28735 15.52751 26350 ft 457 kts 75°
2026-04-16 07:00 47.29467 15.57245 25585 ft 451 kts 75°
2026-04-16 07:00 47.30190 15.61689 24838 ft 446 kts 76°
2026-04-16 07:01 47.31627 15.70550 23262 ft 439 kts 76°
2026-04-16 07:01 47.32325 15.74879 22457 ft 434 kts 76°
2026-04-16 07:01 47.33015 15.79160 21725 ft 428 kts 76°
2026-04-16 07:01 47.33694 15.83391 20989 ft 423 kts 76°
2026-04-16 07:02 47.34374 15.87642 20248 ft 419 kts 76°
2026-04-16 07:02 47.35035 15.91768 19554 ft 415 kts 76°
2026-04-16 07:02 47.35695 15.95912 18858 ft 411 kts 76°
2026-04-16 07:02 47.36352 15.99976 18121 ft 407 kts 73°
2026-04-16 07:03 47.37311 16.03850 17359 ft 403 kts 64°
2026-04-16 07:03 47.38707 16.07423 16634 ft 397 kts 53°
2026-04-16 07:03 47.40324 16.10652 15964 ft 392 kts 52°
2026-04-16 07:03 47.41960 16.13899 15273 ft 389 kts 52°
2026-04-16 07:04 47.43557 16.17085 14621 ft 386 kts 52°
2026-04-16 07:04 47.45134 16.20249 13959 ft 383 kts 52°
2026-04-16 07:04 47.46715 16.23439 13216 ft 380 kts 53°
2026-04-16 07:04 47.48256 16.26561 12535 ft 376 kts 52°
2026-04-16 07:05 47.49797 16.29693 11885 ft 373 kts 52°
2026-04-16 07:05 47.51301 16.32754 11245 ft 370 kts 52°
2026-04-16 07:05 47.52795 16.35800 10942 ft 357 kts 52°
2026-04-16 07:05 47.54224 16.38720 10789 ft 341 kts 52°
2026-04-16 07:06 47.55578 16.41486 10629 ft 328 kts 52°
2026-04-16 07:06 47.56898 16.44185 10487 ft 315 kts 52°
2026-04-16 07:06 47.58163 16.46774 10355 ft 303 kts 52°
2026-04-16 07:06 47.59367 16.49239 10234 ft 292 kts 52°
2026-04-16 07:07 47.60550 16.51661 9956 ft 288 kts 52°
2026-04-16 07:07 47.61712 16.54044 9615 ft 285 kts 52°
2026-04-16 07:07 47.62872 16.56422 9284 ft 283 kts 52°
2026-04-16 07:07 47.64023 16.58786 8962 ft 280 kts 51°
2026-04-16 07:08 47.65147 16.61098 8631 ft 278 kts 51°
2026-04-16 07:08 47.66273 16.63440 8310 ft 276 kts 54°
2026-04-16 07:08 47.67027 16.66046 7883 ft 281 kts 72°
2026-04-16 07:08 47.67525 16.68896 7457 ft 283 kts 73°
2026-04-16 07:09 47.68162 16.71604 7086 ft 278 kts 54°
2026-04-16 07:09 47.69564 16.73447 6791 ft 265 kts 21°
2026-04-16 07:09 47.71347 16.73885 6471 ft 258 kts 357°
2026-04-16 07:09 47.73109 16.73694 6128 ft 257 kts 353°
2026-04-16 07:10 47.74883 16.73330 5825 ft 252 kts 349°
2026-04-16 07:10 47.76525 16.72802 5693 ft 235 kts 345°
2026-04-16 07:10 47.78069 16.72195 5536 ft 221 kts 344°
2026-04-16 07:10 47.79493 16.71601 5380 ft 208 kts 344°
2026-04-16 07:11 47.80875 16.71015 5245 ft 203 kts 344°
2026-04-16 07:11 47.82231 16.70439 5114 ft 201 kts 344°
2026-04-16 07:11 47.83579 16.69866 4999 ft 201 kts 344°
2026-04-16 07:11 47.84911 16.69300 4883 ft 201 kts 344°
2026-04-16 07:12 47.86260 16.68728 4763 ft 203 kts 344°
2026-04-16 07:12 47.87633 16.68144 4636 ft 205 kts 344°
2026-04-16 07:12 47.88993 16.67567 4579 ft 203 kts 344°
2026-04-16 07:12 47.90375 16.66980 4345 ft 206 kts 344°
2026-04-16 07:13 47.91734 16.66403 4091 ft 205 kts 345°
2026-04-16 07:13 47.93100 16.65824 3801 ft 201 kts 345°
2026-04-16 07:13 47.94429 16.65260 3553 ft 195 kts 344°
2026-04-16 07:13 47.95707 16.64716 3308 ft 187 kts 345°
2026-04-16 07:14 47.96924 16.64200 3046 ft 180 kts 345°
2026-04-16 07:14 47.98136 16.63686 2808 ft 178 kts 345°
2026-04-16 07:14 47.99306 16.63190 2558 ft 176 kts 344°
2026-04-16 07:14 48.00488 16.62688 2334 ft 170 kts 344°
2026-04-16 07:15 48.01567 16.62230 2096 ft 155 kts 344°
2026-04-16 07:15 48.02539 16.61831 1987 ft 135 kts 345°
2026-04-16 07:15 48.03445 16.61431 1748 ft 138 kts 343°
2026-04-16 07:15 48.04368 16.61026 1530 ft 137 kts 343°
2026-04-16 07:16 48.05274 16.60640 1347 ft 136 kts 344°
2026-04-16 07:16 48.06184 16.60267 1158 ft 133 kts 343°
2026-04-16 07:16 48.07059 16.59901 968 ft 132 kts 343°
2026-04-16 07:16 48.07950 16.59519 819 ft 132 kts 342°
2026-04-16 07:17 48.08809 16.59151 670 ft 127 kts 343°
2026-04-16 07:17 48.09604 16.58818 610 ft 105 kts 344°
2026-04-16 07:17 48.10186 16.58576 615 ft 70 kts 343°
2026-04-16 07:17 48.10507 16.58438 617 ft 37 kts 343°
2026-04-16 07:18 48.10731 16.58275 610 ft 35 kts 320°
2026-04-16 07:18 48.10895 16.58029 612 ft 32 kts 314°
2026-04-16 07:18 48.11036 16.57798 612 ft 29 kts 301°
2026-04-16 07:18 48.11124 16.57537 612 ft 27 kts 296°
2026-04-16 07:19 48.11210 16.57300 611 ft 24 kts 323°
2026-04-16 07:19 48.11357 16.57362 612 ft 23 kts 26°
2026-04-16 07:19 48.11467 16.57264 612 ft 22 kts 296°
2026-04-16 07:19 48.11523 16.57092 611 ft 12 kts 296°
2026-04-16 07:20 48.11488 16.57031 608 ft 8 kts 205°
2026-04-16 07:20 48.11465 16.57014 608 ft 2 kts 206°
2026-04-16 07:20 48.11464 16.57013 608 ft 0 kts 206°